This demonstration page uses our WeatherBlox Daily Observations layout. Learn more.

Left ArrowRight Arrow

Hourly Observations for May 9, 2020

Temp ( °F °C ) Dew Point ( °F °C ) Humidity (%) Winds ( mph kmh ) Pressure ( in mb ) Visibility ( mi km ) Precip ( " mm )
12:52 am 00:52 Clear 44 6.7 35 1.7 71 71 Calm 30.25 1025 10 16 0.00 0.00
1:52 am 01:52 Clear 43 6.1 34 1.1 71 71 Calm 30.26 1025 10 16 0.00 0.00
2:52 am 02:52 Mostly Clear 41 5 32 0 70 70 ESE 5 7 30.25 1024 10 16 0.00 0.00
3:52 am 03:52 Mostly Clear 39 3.9 32 0 76 76 Calm 30.24 1024 10 16 0.00 0.00
4:52 am 04:52 Mostly Clear 39 3.9 34 1.1 82 82 SE 5 7 30.23 1024 10 16 0.00 0.00
5:52 am 05:52 Partly Cloudy 38 3.3 33 0.6 83 83 SSE 6 9 30.23 1024 10 16 0.00 0.00
6:52 am 06:52 Cloudy 38 3.3 34 1.1 86 86 SE 5 7 30.24 1024 10 16 0.00 0.00
7:52 am 07:52 Cloudy 43 6.1 37 2.8 80 80 SSE 6 9 30.24 1024 10 16 0.00 0.00
8:52 am 08:52 Mostly Cloudy 51 10.6 35 1.7 54 54 S 8 13 30.24 1024 10 16 0.00 0.00
9:52 am 09:52 Mostly Cloudy 55 12.8 30 -1.1 38 38 SSW 14 22 30.22 1024 10 16 0.00 0.00
10:52 am 10:52 Mostly Cloudy 58 14.4 31 -0.6 36 36 SSW 18 30 30.20 1023 10 16 0.00 0.00
11:52 am 11:52 Mostly Cloudy 61 16.1 32 0 34 34 SW 15 24 30.19 1023 10 16 0.00 0.00
12:52 pm 12:52 Mostly Cloudy 63 17.2 32 0 31 31 SW 14 22 30.16 1021 10 16 0.00 0.00
1:52 pm 13:52 Mostly Cloudy 65 18.3 34 1.1 32 32 SSW 17 28 30.13 1020 10 16 0.00 0.00
2:52 pm 14:52 Mostly Cloudy 67 19.4 34 1.1 30 30 WSW 18 30 30.10 1019 10 16 0.00 0.00
3:52 pm 15:52 Mostly Cloudy with Light Rain 66 18.9 32 0 28 28 W 23 37 30.07 1018 10 16 0.00 0.00
4:20 pm 16:20 Cloudy with Light Rain 58 14.4 44 6.7 60 60 NW 23 37 30.07 1018 9 14 0.00 0.00
4:52 pm 16:52 Mostly Cloudy with Light Rain 57 13.9 45 7.2 64 64 NW 23 37 30.10 1019 10 16 0.00 0.00
5:52 pm 17:52 Cloudy with Light Rain 50 10 45 7.2 83 83 NW 13 20 30.14 1021 6 10 0.00 0.00
6:52 pm 18:52 Mostly Cloudy 50 10 45 7.2 83 83 W 7 11 30.14 1021 10 16 0.03 0.76
7:52 pm 19:52 Mostly Cloudy 51 10.6 44 6.7 77 77 WSW 8 13 30.11 1020 10 16 0.00 0.00
8:52 pm 20:52 Mostly Cloudy 51 10.6 44 6.7 77 77 W 10 17 30.13 1020 10 16 0.00 0.00
9:52 pm 21:52 Partly Cloudy 46 7.8 33 0.6 61 61 WNW 13 20 30.17 1022 10 16 0.00 0.00
10:52 pm 22:52 Cloudy 46 7.8 34 1.1 63 63 WNW 21 33 30.17 1022 10 16 0.00 0.00
11:38 pm 23:38 Cloudy 45 7.2 36 2.2 71 71 WNW 23 37 30.19 1022 10 16 0.00 0.00
11:52 pm 23:52 Cloudy 44 6.7 36 2.2 73 73 WNW 23 37 30.18 1022 10 16 0.00 0.00

Powered by AerisWeather